Follow iAlert.com on twitter @ialertcom
Search For Active Alerts in Your Area  
  Hi Guest:  [ Sign-up / Services ] [ Login ]

Current weather by "City, St" or "zip code"  
 

Advertise Here

Current Conditions: Pottstown, Pottstown Limerick Airport, PA

Rain Fog/Mist


43.0 F

Last Updated on Feb 25 2018, 3:54 am EST
Humidity: 100%
Wind Speed: E 8.1 mph
Barometer 30.06 in
Dewpoint: 43.0 F
Visibility: 2.50 mi
Precip: 00.11 in
Heat Index: NA
Wind Chill: 38 F
Current conditions at:

Pottstown, Pottstown Limerick Airport, PA (KPTW)

Lat: 40.23 Lon: 75.554

Local Radar Image active severe weather and emergency alerts image image weather storm and storm spotter reports image weather observation monitoring service image
Local
Radar
Active
Alerts
Storm Reports Obs
Monitoring

iAlert Weather and Emergency Alert Notification Services:


ialert severe weather and emergency alerts by text message and email ialert daily weather forecast by email and text message service ialert real-time weather-observation monitoring and alert notification service ialert storm report monitoring alert notification

Observation History for Pottstown, Pottstown Limerick Airport, PA


Time Wind
(mph)
Vis
(mi)
Weather Precip (in) Temperature (F) Relative
Humidity
Wind
Chill
(°F)
Heat
Index
(°F)
Pressure
Air Dwpt altimeter
(in)
sea level
(mb)
3:54 am EST E 8.1 2.50 Rain Fog/Mist 00.11 43.0 43.0 100% 38 NA 30.06 1017.9
2:54 am EST E 5.8 3.00 Light Rain Fog/Mist 00.12 43.0 43.0 100% 39 NA 30.08 1018.7
1:54 am EST E 5.8 4.00 Light Rain Fog/Mist Trace 43.0 43.0 100% 39 NA 30.13 1020.2
12:54 am EST E 5.8 6.00 Fog/Mist -- 43.0 42.1 97% 39 NA 30.15 1021.0
11:54 pm EST E 5.8 7.00 Overcast -- 43.0 43.0 100% 39 NA 30.17 1021.4
10:54 pm EST E 3.5 7.00 Overcast Trace 44.0 43.0 96% NA NA 30.18 1021.9
9:54 pm EST E 4.6 5.00 Light Rain Fog/Mist 00.01 44.0 43.0 96% 41 NA 30.20 1022.6
8:54 pm EST NE 4.6 6.00 Fog/Mist -- 45.0 44.1 97% 43 NA 30.18 1022.0
7:54 pm EST N 0.0 6.00 Fog/Mist Trace 45.0 45.0 100% NA NA 30.18 1022.0
6:54 pm EST N 4.6 5.00 Fog/Mist Trace 46.0 45.0 96% 44 NA 30.20 1022.6
5:54 pm EST N 0.0 7.00 Overcast Trace 46.0 45.0 96% NA NA 30.18 1021.9
4:54 pm EST NE 5.8 4.00 Light Rain Fog/Mist 00.02 47.0 46.0 97% 44 NA 30.17 1021.5
3:54 pm EST NW 4.6 2.00 Light Rain Fog/Mist 00.02 47.0 46.9 100% 45 NA 30.19 1022.3
2:54 pm EST N 0.0 3.00 Light Rain Fog/Mist Trace 47.0 46.9 100% NA NA 30.15 1020.8
1:54 pm EST N 0.0 3.00 Fog/Mist Trace 47.0 46.0 97% NA NA 30.16 1021.2
12:54 pm EST NW 3.5 3.00 Light Rain Fog/Mist 00.01 46.0 46.0 100% NA NA 30.19 1022.2
11:54 am EST N 0.0 3.00 Light Rain Fog/Mist 00.04 46.0 46.0 100% NA NA 30.18 1021.9
10:54 am EST N 0.0 2.50 Light Rain Fog/Mist 00.06 45.0 45.0 100% NA NA 30.20 1022.7
9:54 am EST N 0.0 4.00 Fog/Mist -- 46.0 44.1 93% NA NA 30.19 1022.1
8:54 am EST N 0.0 2.00 Fog/Mist -- 43.0 43.0 100% NA NA 30.20 1022.6
7:54 am EST N 5.8 0.25 Fog -- 42.0 42.1 100% 38 NA 30.19 1022.3
6:54 am EST N 0.0 0.25 Fog -- 42.0 42.1 100% NA NA 30.18 1022.0
5:54 am EST W 3.5 1.25 Fog/Mist -- 42.0 42.1 100% NA NA 30.19 1022.3
4:54 am EST NW 4.6 2.50 Fog/Mist -- 42.0 42.1 100% 39 NA 30.19 1022.2

Regional Weather Observation


Pottstown, Pottstown Limerick Airport, PA (KPTW)

Rain Fog/Mist
43.0 F

Allentown Queen City Municipal Airport, PA (KXLL)

Heavy Rain
43.0 F

Quakertown Airport, PA (KUKT)

Fog/Mist
43.0 F

Allentown, Lehigh Valley International Airport, PA (KABE)

Light Rain Fog/Mist
43.0 F

Doylestown, Doylestown Airport, PA (KDYL)

Rain
42.0 F

Philadelphia, Northeast Philadelphia Airport, PA (KPNE)

Rain Fog/Mist
46.0 F

Advertise Here